Location: Unnamed
(51.5169°N, 0.1311°W)
Time: 18:22:43
(UTC+00:00)

BlueWalker 3 - Visible Passes

Search period start: 13 March 2026 00:00
Search period end: 23 March 2026 00:00
Orbit: 451 x 458 km, 53.2° (Epoch: 12 March)

Date Brightness Start Highest point End Pass type
(mag) Time Alt. Az. Time Alt. Az. Time Alt. Az.
13 Mar 4.1 03:14:27 22° E 03:14:27 22° E 03:15:54 10° E visible
13 Mar 1.7 04:48:09 29° W 04:49:49 66° SSW 04:53:23 10° ESE visible
14 Mar 1.5 04:13:28 73° WSW 04:13:40 77° SSW 04:17:15 10° ESE visible
15 Mar 3.1 03:38:52 35° ESE 03:38:52 35° ESE 03:41:05 10° ESE visible
15 Mar 2.9 05:12:34 16° W 05:14:37 26° SW 05:17:39 10° SSE visible
16 Mar 4.6 03:04:24 13° ESE 03:04:24 13° ESE 03:04:53 10° ESE visible
16 Mar 2.5 04:38:06 30° SW 04:38:30 31° SW 04:41:43 10° SSE visible
17 Mar 3.2 04:03:47 26° SSE 04:03:47 26° SSE 04:05:43 10° SE visible
18 Mar 4.0 05:03:24 11° SW 05:03:24 11° SW 05:03:51 10° SSW visible
22 Mar 3.6 19:30:55 10° S 19:32:36 15° SE 19:32:36 15° SE visible
